FENGYUN 1C DEB

Satellite information

Favourite Embed

Satellite Type and Status

DEBRISIN ORBIT

Key statistics

Satellite FENGYUN 1C DEB at a glance.

Uptime

9715

Days in orbit

Revolutions

≈ 13.8

Per day

Orbit

SSO

Sun Synchronous Orbit

Inclination

99.3

Latest

Satellite identification and parameters

Extended collection of information and parameters for FENGYUN 1C DEB.

Object identification

Identified? True

Debris? True

Object name: FENGYUN 1C DEB

International designator: 1999-025CLY

Object number (NORAD): 31921

Object ID (CCSDS): 31921

Country: PEOPLES REPUBLIC OF CHINA (PRC)

Current information (Y/N): Y

RCS size: SMALL

Orbital parameters

Period: 104.708 minutes

Inclination: 99.3376 deg

SMA: 7358.899 km

Apoapsis: 1129.516 km

Periapsis: 832.011 km

RAAN: 234.8801 deg

Eccentricy: 0.02021401

Argument of periapsis: 276.3573 deg

Mean anomaly: 81.4593 deg

Mean motion: 13.75255965 rev/day

Mean motion (dot): 0.00001939 rev/day2

B* drag term: 0.0017833511 1/REarth

Two-line elements (TLE)

Creation date: Dec. 8, 2025, 6:20 p.m.

Reference frame: TEME

Reference center: EARTH

Epoch: Dec. 8, 2025, 10:12 a.m. UTC

TLE line 0: 0 FENGYUN 1C DEB

TLE line 1: 1 31921U 99025CLY 25342.42523999 .00001939 00000-0 17834-2 0 9997

TLE line 2: 2 31921 99.3376 234.8801 0202140 276.3573 81.4593 13.75255965922475

Live tracking on map

Real-time ground track for satellite FENGYUN 1C DEB.

In-orbit conjunctions

A list of the most updated potential collisions computed for object FENGYUN 1C DEB.

Target Orbit TCA Probability of collision Miss distance Type
FENGYUN 1C DEB SSO 2025-06-16 13:46:28 0.0003982886 11.0 (m) DEBRIS
COSMOS 1771 LEO 2024-08-03 13:59:07 0.0009807061 149.0 (m) PAYLOAD
COSMOS 2310 LEO 2024-07-14 06:08:06 0.0004375006 437.0 (m) PAYLOAD
SL-24 R/B SSO 2024-07-03 03:12:27 0.0002099335 95.0 (m) ROCKET BODY

Associated space launch

Chinese polar orbiting meteorological satellite

FENGYUN 1C DEB was lifted into orbit during the mission ‘Long March 4B | Feng Yun 1C’, on board a Long March 4B space rocket.

The launch took place on May 10, 1999, 1:33 a.m. from Launch Complex 7.

For more information about the launch, click the button.

Launch to space Long March 4B | Feng Yun 1C
Long March 4B | Feng Yun 1C

Agency: N/A

Status: Launch Successful

Launch date: May 10, 1999, 1:33 a.m. UTC

Rocket: Long March 4B

Launch pad: Launch Complex 7

Location: Taiyuan Satellite Launch Center, People's Republic of China

...

Latest news about this satellite

There are no fresh news available about this satellite. Check back as we update our databases every day.


Newsletter sign-up

Weekly statistics, charts and insights to help you stay on top of the space industry.